Location: Oberwangen
(47.4286°N, 8.9679°E)
Time: 09:23:34
(UTC+00:00)

Cosmos 1816 Rocket - Pass Details

Date: 18 October 2021
Orbit: 952 x 998 km, 82.9° (Epoch: 08 December)

Event Time Altitude Azimuth Distance (km) Brightness Sun altitude
Rises 21:03:45 0° 343° (NNW) 3,643 8.1 -44.1°
Reaches altitude 10° 21:06:29 10° 334° (NNW) 2,697 7.3 -44.4°
Enters shadow 21:08:35 20° 321° (NW) 2,063 6.6 -44.7°
